Probability
0 0 0 0 0 0 0 0 0 0 0 0 0 0 0 0 0 0 0 0 0 0 0 0 0 0 0 0 0 0 0 0 0 0 0 0 0 0 0 0 0 0 0 0
0 0 0 0 0 0 0 0 0 0 0 0 0 0 0 0 0 0 0 0 0 0 0 0 0 0 0 0 0 0 0 0 0 0 0 0 0 0 0 0 0 0 0 0
0 0 0 0 0 0 0 0 0 0 0 0 0 0 0 0 0 0 0 0 0 0 0 0 0 0 0 0 0 0 0 0 0 0 0 0 0 0 0 0 0 0 0 0
0 0 0 0 0 0 0 0 0 0 0 0 0 0 0 0 0 0 0 0 0 0 0 0 0 0 0 0 0 0 0 0 0 0 0 0 0 0 0 0 0 0 0 0
0 0 0 0 0 0 0 0 0 0 0 0 0 0 0 0 0 0 0 0 0 0 0 0 0 0 0 0 0 0 0 0 0 0 0 0 0 0 0 0 0 0 0 0
0 0 0 0 0 0 0 0 0 0 0 0 0 0 0 0 0 0 0 0 0 0 0 0 0 0 0 0 0 0 0 0 0 0 0 0 0 0 0 0 0 0 0 0
0 0 0 0 0 0 0 0 0 0 0 0 0 0 0 0 0 0 0 0 0 0 0 0 0 0 0 0 0 0 0 0 0 0 0 0 0 0 0 0 0 0 0 0
0 0 0 0 0 0 0 0 0 0 0 0 0 0 0 0 0 0 0 0 0 0 0 0 0 0 0 0 0 0 0 0 0 0 0 0 0 0 0 0 0 0 0 0
0 0 0 0 0 0 0 0 0 0 0 0 0 0 0 0 0 0 0 0 0 0 0 0 0 0 0 0 0 0 0 0 0 0 0 0 0 0 0 0 0 0 0 0
0 0 0 0 0 0 0 0 0 0 0 0 0 0 0 0 0 0 0 0 0 0 0 0 0 0 0 0 0 0 0 0 0 0 0 0 0 0 0 0 0 0 0 0
0 0 0 0 0 0 0 0 0 0 0 0 0 0 0 0 0 0 0 0 0 0 0 0 0 0 0 0 0 0 0 0 0 0 0 0 0 0 0 0 0 0 0 0
0 0 0 0 0 0 0 0 0 0 0 0 0 0 0 0 0 0 0 0 0 0 0 0 0 0 0 0 0 0 0 0 0 0 0 0 0 0 0 0 0 0 0 0
0 0 0 0 0 0 0 0 0 0 0 0 0 0 0 0 0 0 0 0 0 0 0 0 0 0 0 0 0 0 0 0 0 0 0 0 0 0 0 0 0 0 0 0
0 0 0 0 0 0 0 0 0 0 0 0 0 0 0 0 0 0 0 0 0 0 0 0 0 0 0 0 0 0 0 0 0 0 0 0 0 0 0 0 0 0 0 0
0 0 0 0 0 0 0 0 0 0 0 0 0 0 0 0 0 0 0 0 0 0 0 0 0 0 0 0 0 0 0 0 0 0 0 0 0 0 0 0 0 0 0 0
0 0 0 0 0 0 0 0 0 0 0 0 0 0 0 0 0 0 0 0 0 0 0 0 0 0 0 0 0 0 0 0 0 0 0 0 0 0 0 0 0 0 0 0
0 0 0 0 0 0 0 0 0 0 0 0 0 0 0 0 0 0 0 0 0 0 0 0 0 0 0 0 0 0 0 0 0 0 0 0 0 0 0 0 0 0 0 0
0 0 0 0 0 0 0 0 0 0 0 0 0 0 0 0 0 0 0 0 0 0 0 0 0 0 0 0 0 0 0 0 0 0 0 0 0 0 0 0 0 0 0 0
0 0 0 0 0 0 0 0 0 0 0 0 0 0 0 0 0 0 0 0 0 0 0 0 0 0 0 0 0 0 0 0 0 0 0 0 0 0 0 0 0 0 0 0
0 0 0 0 0 0 0 0 0 0 0 0 0 0 0 0 0 0 0 0 0 0 0 0 0 0 0 0 0 0 0 0 0 0 0 0 0 0 0 0 0 0 0 0
0 0 0 0 0 0 0 0 0 0 0 0 0 0 0 0 0 0 0 0 0 0 0 0 0 0 0 0 0 0 0 0 0 0 0 0 0 0 0 0 0 0 0 0
0 0 0 0 0 0 0 0 0 0 0 0 0 0 0 0 0 0 0 0 0 0 0 0 0 0 0 0 0 0 0 0 0 0 0 0 0 0 0 0 0 0 0 0
0 0 0 0 0 0 0 0 0 0 0 0 0 0 0 0 0 0 0 0 0 0 0 0 0 0 0 0 0 0 0 0 0 0 0 0 0 0 0 0 0 0 0 0
0 0 0 0 0 0 0 0 0 0 0 0 0 0 0 0 0 0 0 0 0 0 0 0 0 0 0 0 0 0 0 0 0 0 0 0 0 0 0 0 0 0 0 0
0 0 0 0 0 0 0 0 0 0 0 0 0 0 0 0 0 0 0 0 0 0 0 0 0 0 0 0 0 0 0 0 0 0 0 0 0 0 0 0 0 0 0 0
0 0 0 0 0 0 0 0 0 0 0 0 0 0 0 0 0 0 0 0 0 0 0 0 0 0 0 0 0 0 0 0 0 0 0 0 0 0 0 0 0 0 0 0
0 0 0 0 0 0 0 0 0 0 0 0 0 0 0 0 0 0 0 0 0 0 0 0 0 0 0 0 0 0 0 0 0 0 0 0 0 0 0 0 0 0 0 0
Height
5819 5822 5824 5826 5828 5829 5829 5831 5832 5834 5835 5837 5836 5837 5837 5836 5836 5836 5836 5836 5835 5835 5835 5835 5835 5835 5836 5836 5836 5837 5837 5837 5838 5839 5839 5840 5841 5842 5843 5844 5845 5845 5845 5845
5812 5814 5816 5818 5820 5821 5823 5824 5826 5828 5830 5831 5831 5831 5831 5831 5831 5831 5831 5831 5831 5831 5831 5831 5831 5832 5832 5832 5833 5833 5834 5834 5835 5835 5836 5837 5838 5839 5840 5841 5842 5843 5843 5843
5804 5806 5807 5810 5813 5815 5817 5818 5820 5821 5825 5825 5825 5826 5826 5826 5826 5827 5827 5827 5827 5827 5827 5827 5827 5828 5828 5829 5829 5830 5830 5831 5831 5832 5833 5834 5835 5836 5837 5838 5839 5840 5840 5840
5795 5798 5799 5805 5806 5808 5809 5811 5813 5815 5816 5818 5819 5820 5820 5821 5821 5821 5822 5822 5822 5822 5822 5823 5823 5823 5824 5825 5825 5826 5827 5827 5828 5829 5830 5831 5832 5833 5834 5835 5836 5837 5837 5837
5786 5788 5791 5796 5798 5800 5802 5804 5806 5807 5809 5811 5812 5813 5814 5815 5816 5816 5816 5817 5817 5817 5818 5818 5818 5819 5820 5820 5821 5822 5823 5824 5825 5826 5826 5827 5828 5829 5830 5831 5833 5833 5834 5834
5778 5779 5783 5790 5791 5792 5795 5796 5799 5800 5802 5803 5804 5806 5808 5809 5809 5810 5811 5811 5812 5812 5813 5813 5813 5814 5815 5816 5817 5818 5819 5819 5820 5822 5823 5824 5825 5826 5827 5828 5829 5830 5830 5831
5769 5771 5775 5781 5783 5784 5787 5791 5792 5793 5794 5796 5797 5800 5801 5802 5803 5803 5804 5805 5806 5807 5807 5808 5808 5809 5810 5811 5812 5813 5814 5815 5816 5817 5818 5820 5821 5822 5823 5824 5825 5826 5826 5827
5761 5763 5770 5773 5774 5777 5780 5782 5784 5785 5787 5789 5791 5792 5793 5795 5796 5797 5798 5799 5800 5801 5802 5802 5803 5804 5805 5806 5807 5808 5809 5810 5811 5813 5814 5815 5816 5818 5819 5820 5821 5821 5822 5823
5754 5759 5762 5764 5766 5768 5771 5773 5776 5778 5780 5782 5783 5785 5786 5788 5789 5790 5792 5793 5794 5795 5796 5797 5797 5798 5799 5800 5801 5802 5804 5805 5806 5808 5809 5810 5811 5813 5814 5815 5816 5817 5818 5818
5745 5749 5753 5755 5757 5760 5763 5765 5768 5770 5773 5774 5776 5777 5779 5781 5782 5784 5785 5786 5788 5789 5790 5790 5791 5792 5793 5794 5795 5797 5798 5800 5801 5802 5804 5805 5806 5808 5809 5810 5811 5812 5813 5813
5736 5741 5743 5746 5749 5752 5755 5757 5760 5762 5765 5766 5768 5770 5772 5773 5775 5777 5778 5780 5781 5782 5783 5784 5785 5786 5787 5788 5790 5791 5793 5794 5796 5797 5799 5800 5801 5802 5803 5805 5805 5807 5807 5808
5728 5733 5735 5738 5741 5744 5746 5749 5751 5754 5757 5759 5761 5762 5764 5766 5768 5769 5771 5773 5774 5775 5776 5778 5779 5780 5781 5782 5784 5785 5787 5789 5790 5792 5793 5794 5795 5797 5798 5799 5800 5801 5802 5802
5720 5723 5726 5729 5732 5735 5738 5741 5743 5746 5749 5751 5753 5754 5756 5758 5760 5762 5763 5765 5766 5768 5769 5770 5772 5773 5774 5776 5778 5780 5781 5783 5784 5786 5787 5788 5789 5791 5792 5793 5794 5795 5796 5797
5710 5714 5717 5721 5724 5727 5730 5733 5735 5738 5740 5742 5744 5746 5748 5750 5751 5753 5755 5757 5758 5760 5762 5763 5764 5766 5767 5769 5771 5773 5775 5776 5778 5779 5781 5782 5784 5785 5786 5787 5788 5789 5790 5790
5702 5705 5709 5712 5715 5718 5722 5725 5727 5730 5732 5734 5736 5737 5739 5741 5743 5745 5747 5749 5750 5752 5754 5755 5757 5759 5760 5762 5764 5766 5767 5769 5771 5773 5774 5776 5777 5778 5779 5780 5781 5782 5783 5784
5693 5696 5699 5703 5706 5709 5713 5716 5719 5721 5724 5726 5728 5729 5731 5733 5735 5737 5739 5741 5743 5744 5746 5748 5749 5751 5753 5755 5757 5759 5761 5762 5764 5766 5767 5769 5770 5772 5773 5773 5774 5775 5776 5776
5685 5688 5691 5695 5698 5701 5704 5708 5710 5713 5715 5717 5719 5721 5723 5725 5727 5729 5731 5733 5735 5737 5738 5740 5742 5744 5747 5749 5750 5752 5754 5755 5757 5759 5760 5762 5763 5765 5766 5767 5767 5768 5769 5769
5676 5680 5683 5687 5690 5693 5696 5699 5702 5705 5707 5709 5712 5714 5716 5718 5720 5722 5724 5726 5728 5730 5731 5733 5735 5737 5740 5742 5744 5745 5747 5749 5750 5752 5753 5755 5756 5758 5759 5760 5760 5761 5761 5762
5668 5672 5675 5679 5682 5685 5688 5692 5694 5697 5699 5702 5704 5706 5708 5710 5712 5715 5717 5719 5721 5723 5725 5727 5729 5731 5733 5735 5737 5739 5740 5742 5744 5745 5746 5748 5749 5750 5751 5752 5753 5753 5754 5754
5661 5664 5667 5671 5674 5678 5681 5684 5686 5689 5691 5694 5696 5699 5701 5703 5705 5707 5709 5712 5714 5715 5717 5720 5722 5724 5726 5728 5730 5732 5733 5735 5736 5738 5739 5740 5742 5743 5744 5745 5745 5746 5746 5746
5654 5657 5661 5664 5667 5670 5673 5676 5679 5681 5684 5687 5689 5691 5694 5696 5698 5700 5702 5705 5707 5708 5711 5713 5715 5717 5719 5721 5723 5724 5726 5728 5729 5730 5732 5733 5735 5736 5737 5737 5738 5738 5738 5739
5647 5650 5654 5657 5660 5663 5666 5669 5671 5674 5677 5679 5681 5684 5686 5688 5690 5693 5695 5697 5700 5701 5703 5706 5708 5710 5712 5714 5716 5718 5719 5720 5722 5723 5725 5726 5728 5729 5729 5730 5731 5731 5731 5731
5640 5643 5646 5650 5653 5656 5658 5661 5664 5667 5670 5672 5674 5676 5679 5681 5683 5686 5688 5690 5692 5694 5696 5699 5701 5703 5706 5708 5709 5711 5713 5714 5715 5717 5718 5720 5721 5722 5723 5723 5724 5724 5723 5723
5634 5636 5639 5643 5645 5648 5651 5654 5657 5660 5663 5665 5667 5669 5672 5674 5676 5678 5680 5683 5685 5687 5689 5691 5694 5696 5699 5701 5703 5704 5706 5708 5709 5710 5712 5713 5714 5715 5715 5716 5716 5716 5716 5715
5628 5631 5633 5636 5639 5642 5645 5647 5650 5653 5655 5657 5660 5662 5664 5666 5669 5671 5673 5676 5678 5680 5682 5684 5686 5689 5691 5693 5695 5697 5699 5701 5703 5704 5705 5706 5707 5708 5708 5708 5708 5708 5708 5707
5622 5624 5627 5630 5632 5635 5638 5640 5643 5645 5648 5650 5652 5655 5657 5659 5661 5664 5666 5668 5670 5673 5675 5677 5679 5681 5684 5686 5688 5690 5692 5694 5696 5697 5698 5699 5700 5701 5701 5701 5701 5700 5700 5699
5616 5618 5621 5623 5626 5628 5631 5633 5636 5638 5641 5643 5645 5647 5649 5652 5654 5656 5658 5660 5663 5665 5667 5669 5672 5674 5676 5679 5681 5683 5685 5687 5689 5690 5691 5692 5692 5693 5693 5693 5693 5692 5692 5691
Wind_Speed
27 26 26 26 25 25 24 23 23 21 19 18 17 17 17 17 16 15 14 14 14 13 13 12 12 12 12 13 13 13 13 13 13 13 13 13 13 12 12 10 9 9 9 9
29 29 29 29 28 27 26 25 24 23 20 19 18 18 18 18 17 16 15 15 14 14 14 14 13 13 13 13 14 14 13 13 13 13 13 14 13 13 13 12 11 10 10 10
30 30 31 31 29 28 27 26 26 25 22 21 20 19 18 18 18 17 16 15 15 14 14 15 15 14 14 14 14 14 13 13 13 13 14 14 14 14 14 13 13 12 10 10
31 31 33 30 29 29 29 27 26 25 24 22 21 20 20 19 19 18 17 17 16 15 14 15 16 16 15 16 15 15 14 14 14 14 14 14 15 15 15 15 14 13 12 11
33 34 33 30 30 30 29 28 26 25 24 24 23 22 21 20 19 19 18 17 17 16 15 15 16 16 16 16 16 15 15 15 16 15 15 14 15 15 15 15 16 15 14 13
33 34 33 29 29 29 29 28 26 25 24 24 23 22 21 21 21 20 19 19 18 17 16 16 16 16 17 17 17 17 16 16 17 17 16 15 16 16 15 15 15 15 15 15
32 33 31 29 28 28 28 25 25 25 24 24 24 22 22 22 22 22 20 20 18 17 17 17 17 17 18 18 18 18 18 17 17 17 17 17 17 17 16 16 16 16 15 16
33 33 29 27 27 28 27 25 25 26 25 25 24 23 23 23 22 22 21 20 19 18 18 18 18 18 18 18 18 19 19 18 18 18 18 18 18 18 17 17 16 16 16 16
33 31 29 28 28 27 27 26 26 26 25 25 25 24 24 23 23 22 22 21 20 20 19 19 19 19 19 20 20 20 19 19 19 18 19 19 19 18 18 17 17 18 17 17
35 32 30 30 28 27 27 27 26 26 25 25 25 25 25 24 24 23 22 21 21 20 20 20 20 20 20 20 20 20 20 20 19 19 19 18 18 18 18 18 18 18 18 18
35 32 31 30 29 28 27 27 26 26 25 25 25 25 24 24 24 24 23 22 22 21 21 21 21 20 21 21 21 21 20 20 19 19 19 19 19 19 19 19 19 19 19 19
33 31 31 30 29 28 28 28 27 26 25 25 25 25 25 25 25 24 24 24 23 23 22 22 22 22 22 21 21 21 21 20 20 20 20 20 20 19 19 20 20 20 20 19
33 31 31 30 30 29 28 28 29 27 26 26 26 26 26 26 26 25 24 24 24 24 23 23 23 23 23 22 22 22 22 22 22 22 21 21 20 19 19 20 20 20 20 20
32 31 30 31 30 29 29 28 29 28 27 27 27 26 26 27 26 26 25 25 24 24 23 23 23 23 23 23 23 23 23 22 22 22 22 22 21 21 21 21 21 21 21 21
31 31 30 31 31 30 30 29 28 27 27 27 27 27 27 27 26 25 24 24 24 24 24 24 24 23 23 23 23 24 24 23 23 23 23 22 22 22 22 22 22 22 22 22
31 31 30 30 30 30 30 29 28 27 27 26 26 27 27 26 26 25 25 24 24 23 24 24 23 23 24 24 24 24 23 23 23 24 23 23 22 22 22 23 23 23 22 22
32 31 31 29 29 29 29 28 28 27 27 26 26 26 26 26 25 25 24 24 23 23 23 23 23 23 23 24 23 23 23 23 23 24 24 23 23 23 23 23 23 23 23 23
31 31 30 30 29 27 27 28 27 27 27 26 26 26 25 25 24 24 24 23 23 23 22 22 23 23 23 23 23 23 23 23 22 23 23 24 23 23 22 22 23 24 24 24
28 29 29 30 30 29 28 28 27 26 26 26 26 26 25 24 24 24 24 23 23 23 23 23 23 23 24 24 25 25 24 24 23 23 23 24 23 23 23 23 23 24 24 24
26 26 27 28 29 29 28 28 28 27 25 25 26 26 25 24 24 24 24 23 23 23 24 24 24 25 25 25 25 25 24 24 24 23 23 23 23 23 23 23 23 24 24 24
25 26 26 27 28 28 27 28 28 27 26 26 26 26 25 25 25 25 24 23 23 24 24 24 24 24 25 25 25 25 24 23 23 23 23 22 22 22 22 23 23 23 24 25
25 25 26 26 26 26 26 27 27 27 27 26 26 26 26 25 25 24 24 24 24 24 24 24 24 24 24 24 24 24 23 23 23 23 23 22 22 22 22 22 23 23 23 24
24 25 25 26 26 26 26 26 26 26 26 26 25 24 24 24 24 24 24 25 25 25 25 24 24 24 24 25 24 23 23 22 22 22 22 22 22 22 22 22 22 23 23 24
22 22 23 24 24 25 25 25 25 25 25 25 25 24 24 25 24 24 24 24 24 25 25 25 25 25 25 25 24 23 23 23 22 22 22 21 21 22 22 22 23 23 24 24
21 22 22 22 22 23 23 24 24 24 25 25 24 24 24 25 25 24 24 24 24 24 24 25 25 25 25 25 25 24 23 23 22 21 21 21 21 22 22 23 23 24 24 24
21 21 21 21 21 22 23 23 23 24 24 24 24 23 24 24 25 25 25 25 25 25 25 25 25 25 25 24 24 24 24 23 22 22 22 22 22 22 22 23 23 24 24 25
21 22 21 21 21 21 21 23 23 23 24 24 23 23 22 23 24 24 24 24 24 25 25 26 26 25 25 25 24 24 24 23 24 24 23 23 23 24 24 25 25 25 24 25
Wind_Direction
249 248 247 249 251 252 254 258 260 263 265 269 270 271 275 278 281 283 284 281 274 268 264 264 263 260 256 251 251 253 253 248 244 243 241 236 233 232 232 236 240 245 247 248
248 249 250 250 251 252 254 256 260 262 262 265 269 269 272 276 277 278 279 278 273 267 264 262 261 258 255 254 251 251 250 249 245 240 237 234 233 233 234 235 238 244 247 250
248 249 251 251 251 253 253 255 258 260 262 263 266 267 269 271 273 274 274 274 271 267 263 261 258 255 254 255 251 249 249 247 242 238 236 233 234 236 239 239 239 242 247 247
250 250 252 255 254 254 254 255 257 258 258 260 263 265 265 265 268 271 270 269 267 266 263 260 257 254 254 253 251 250 249 247 241 238 237 236 237 237 239 241 243 246 249 248
250 251 253 254 254 253 254 256 257 258 257 258 259 260 261 261 264 267 264 263 264 264 263 259 256 254 251 250 248 248 249 248 243 240 239 239 239 239 240 242 243 245 247 247
250 251 253 253 253 253 254 254 254 255 255 255 256 256 258 260 260 262 261 260 259 260 261 259 256 253 250 249 247 246 248 248 245 241 240 239 240 240 242 242 243 245 248 249
249 250 251 253 251 251 252 253 252 252 252 252 253 254 256 257 258 259 257 257 257 258 258 258 256 253 251 250 247 245 246 245 245 243 242 242 242 242 243 243 245 248 249 251
248 248 250 251 250 251 252 251 250 250 250 251 253 252 254 255 255 255 254 255 256 257 257 256 255 254 251 249 246 243 244 244 245 244 243 245 244 242 243 246 248 249 250 252
246 248 250 249 249 251 250 249 249 249 250 251 252 252 254 255 253 251 252 252 254 256 255 254 254 253 249 248 244 242 242 244 245 245 243 244 244 243 244 247 249 249 251 253
244 246 247 247 247 247 248 249 250 249 250 250 251 252 252 252 251 250 251 253 253 254 254 254 252 251 249 248 245 243 243 242 242 243 241 240 243 245 246 248 249 250 252 255
243 244 246 245 245 246 246 247 249 248 248 250 250 250 251 251 250 250 252 252 252 253 253 252 250 249 249 248 246 242 242 241 241 242 242 241 243 246 248 249 250 251 253 256
241 241 243 243 243 244 246 246 247 248 247 247 249 249 250 250 250 250 251 251 251 252 252 250 249 248 248 247 243 241 241 243 243 243 244 243 243 246 249 250 252 253 254 257
240 240 242 242 241 241 244 246 247 250 247 247 249 250 250 251 250 250 250 251 251 250 250 251 249 247 246 245 244 243 243 244 245 245 245 245 246 247 251 251 252 253 255 257
240 240 241 241 240 239 241 245 248 248 246 246 249 248 249 249 250 251 251 252 251 249 249 248 247 246 245 244 244 244 243 244 245 245 247 248 248 250 252 253 252 253 255 258
239 239 240 239 239 240 241 242 245 246 244 246 248 248 248 249 249 249 250 251 250 251 250 248 246 245 244 243 243 243 243 243 244 246 247 250 250 251 254 254 254 255 258 260
238 239 239 238 240 241 240 240 242 244 245 244 245 247 248 249 249 249 249 250 250 251 250 248 244 243 242 243 243 243 243 244 244 246 247 250 253 254 256 256 255 256 257 261
236 238 239 240 240 238 238 239 241 243 243 243 244 245 247 248 247 247 248 250 250 249 247 245 242 241 242 244 243 241 243 245 246 247 247 249 252 255 256 257 256 256 258 263
236 237 237 237 234 235 236 237 240 242 243 244 245 244 245 245 245 246 247 248 247 246 245 243 241 239 239 242 243 244 246 247 249 248 247 249 251 253 255 256 258 260 261 263
234 235 235 236 235 236 237 237 238 241 243 244 244 242 242 242 244 245 247 247 244 244 244 243 240 238 239 242 244 247 248 248 249 249 249 249 250 253 254 257 259 261 262 264
232 231 232 234 235 237 238 237 237 240 242 242 240 240 241 243 244 246 247 246 244 244 242 240 240 240 240 242 244 246 248 249 249 250 250 250 252 253 255 257 260 261 263 266
231 231 232 235 235 236 237 238 239 241 242 241 239 240 241 244 245 245 245 245 244 243 241 240 239 240 241 242 244 245 246 248 250 250 251 251 253 254 255 257 260 263 265 267
231 231 233 235 234 235 236 237 238 239 241 242 243 244 244 245 244 244 243 242 242 242 239 237 239 240 241 242 243 245 246 248 249 250 250 251 253 255 257 260 264 266 266 268
230 230 233 235 236 237 237 236 235 238 241 244 243 242 243 243 241 242 242 241 242 242 239 237 238 239 241 242 244 245 247 249 250 250 252 253 254 255 257 261 264 267 269 271
229 230 232 233 234 234 235 237 238 240 242 242 241 241 241 240 240 240 240 241 241 241 239 238 238 239 239 240 242 245 248 249 249 249 250 251 254 257 260 262 265 269 272 274
232 232 232 232 233 233 235 237 238 239 241 241 241 241 240 239 240 241 241 241 242 240 238 237 238 238 237 239 242 244 246 247 248 249 251 253 256 260 263 266 269 272 274 276
234 234 234 233 233 234 235 236 237 240 241 240 240 240 239 241 242 242 242 242 241 239 238 237 237 236 236 238 241 242 243 245 246 249 252 255 257 260 263 267 272 273 275 277
232 233 233 233 233 233 234 235 237 238 238 238 239 239 240 241 241 241 242 242 242 241 239 237 237 237 238 238 239 241 244 245 247 250 254 257 260 262 265 268 273 275 277 278